Regional Weather Roundup
Issued by NWS

Home | Current Version | Previous Version | Text Only | Print | Product List | Glossary Off
Versions: 1 2 3 4 5 6 7 8 9 10 11 12 13 14 15 16 17 18 19 20 21 22 23 24 25 26 27 28 29 30 31 32 33 34 35 36 37 38 39 40 41 42 43 44 45 46 47 48 49 50

717
ASUS43 KFSD 191802
RWRSD

WEATHER ROUNDUP FOR SOUTH DAKOTA
NATIONAL WEATHER SERVICE SIOUX FALLS SD
100 PM CDT THU OCT 19 2017

NOTE: "FAIR" INDICATES FEW OR NO CLOUDS BELOW 12,000 FEET WITH NO
SIGNIFICANT WEATHER AND/OR OBSTRUCTIONS TO VISIBILITY.


SDZ001>005-009-010-012>017-191900-
NORTHWEST AND NORTH CENTRAL SOUTH DAKOTA

CITY           SKY/WX    TMP DP  RH WIND       PRES   REMARKS
BUFFALO          N/A     75  27  17 S5        29.76F
MOBRIDGE       SUNNY     66  41  40 S6        29.79F
$$

SDZ012>016-024>037-041>051-057-063-072>074-191900-
SOUTHWEST AND SOUTH CENTRAL SOUTH DAKOTA

CITY           SKY/WX    TMP DP  RH WIND       PRES   REMARKS
RAPID CTY ARPT SUNNY     77  25  14 VRB5      29.84F
PIERRE         SUNNY     72  38  29 S8        29.83F
CUSTER         SUNNY     67  18  15 W12       29.98F
ELLSWORTH AFB  SUNNY     78  27  15 S5        29.84F
PHILIP         SUNNY     77  31  18 SW14      29.82F
PINE RIDGE     SUNNY     75  32  20 S10       29.92F
SPEARFISH      FAIR      75  27  16 CALM      29.88S
WINNER         FAIR      75  43  31 S21G29    29.88F
$$

SDZ004>011-016>023-039-040-191900-
NORTHEAST SOUTH DAKOTA

CITY           SKY/WX    TMP DP  RH WIND       PRES   REMARKS
ABERDEEN       SUNNY     69  40  34 S18       29.86F
WATERTOWN      FAIR      66  44  45 S21G31    29.91F
BROOKINGS      FAIR      68  46  45 S16       29.96F
SISSETON         N/A     73  41  31 SW24G30   29.85F
$$

SDZ017-020-022-023-036>040-048>070-191900-
SOUTHEAST SOUTH DAKOTA

CITY           SKY/WX    TMP DP  RH WIND       PRES   REMARKS
SIOUX FALLS    FAIR      71  50  47 S15       29.99F
HURON          SUNNY     68  42  38 S18G25    29.89F
CHAMBERLAIN    SUNNY     74  45  35 S15       29.89F
MITCHELL       SUNNY     71  46  40 S16       29.93F
YANKTON        FAIR      73  49  42 S21       29.98F
$$

ABBREVIATIONS USED IN REMARKS
   TC - TEMPERATURE IN CELSIUS
  WCI - WIND CHILL INDEX
   HX - HEAT INDEX
  VSB - VISIBILITY





USA.gov is the U.S. government's official web portal to all federal, state and local government web resources and services.